Location: Góry Miechowskie
(50.3599°N, 20.1803°E)
Time: 08:11:51
(UTC+00:00)

A-11 Canister half - Pass Details

Date: 14 September 2024
Orbit: 1515 x 1684 km, 47.2° (Epoch: 05 October)

Event Time Altitude Azimuth Distance (km) Brightness Sun altitude
Rises 01:27:39 0° 285° (WNW) 4,665 - -24.9°
Reaches altitude 10° 01:32:16 10° 265° (W) 3,690 - -24.3°
Maximum altitude 01:37:08 16° 233° (SW) 3,279 - -23.7°
Drops below altitude 10° 01:42:04 10° 200° (SSW) 3,729 - -23.1°
Sets 01:46:49 0° 180° (S) 4,740 - -22.5°
